Starlink 3781

operational
NORAD ID: 52272 Int'l Des: 2022-041 Owner: SPXS Country: US Constellation: starlink
LEOCIRCULAR

关于 Starlink 3781

正在加载描述...

实时位置

正在加载3D地球...

即将过境

高度历史

Altitude vs Time

uPlot chart will show altitude changes over time

两行轨道根数

1 52272U 22041M 25296.56650700 -.00000682 00000-0 -24767-4 0 9998
2 52272 53.2193 4.7318 0001497 91.3800 268.7364 15.08842401193662
Epoch: Oct 23, 2025 • Age: 28 hours

当前状态

高度 547.1 km
速度 7.59 km/s
星下点 -24.07°S, 97.73°W
发射日期 Apr 21, 2022
运行时间 3.5 years
类型 internet

技术详情

分类 Payload
质量 297.00 kg
干质量 275.00 kg
总质量 297.00 kg
长度 0.20 m
直径 2.80 m
跨度 9.00 m
形状 Box + pan
制造商 SPXS
平台类型 Starlink
阶段状态 In Orbit
所有者/国家 SPXS/US

大型星座

Loading constellations...